Preview of NWS' New Version of Forecast
This preview is not operational and should not be used for support decisions.

Regional Weather Roundup (RWR)

Issued by National Weather Service (NWS)

                            
000
ASUS46 KPQR 221010
RWROR 

OREGON REGIONAL WEATHER ROUNDUP
NATIONAL WEATHER SERVICE PORTLAND OR
300 AM PDT WED MAY 22 2019

NOTE: "FAIR" INDICATES FEW OR NO CLOUDS BELOW 12,000 FEET WITH
NO SIGNIFICANT WEATHER AND/OR OBSTRUCTIONS TO VISIBILITY.

ORZ001>013-221100-
NORTHWEST OREGON

  
CITY           SKY/WX    TMP DP  RH WIND       PRES   REMARKS
ASTORIA        CLOUDY    54  51  90 W3        29.95R                  
TILLAMOOK      CLOUDY    50  48  93 CALM      29.97R                  
NEWPORT        CLOUDY    54  52  94 N9        29.99R FOG              
PORTLAND       PTCLDY    55  49  80 CALM      29.90R                  
VANCOUVER WA   CLEAR     53  48  83 CALM      29.90R                  
SCAPPOOSE      CLEAR     53  47  79 CALM      29.90R                  
HILLSBORO      CLEAR     50  46  86 W7        29.90R                  
AURORA         CLOUDY    55  51  86 S3        29.92R                  
MCMINNVILLE    PTCLDY    51  48  89 SW6       29.91R                  
SALEM          CLOUDY    55  48  77 NW6       29.91R                  
CORVALLIS      CLOUDY    52  50  93 W6        29.93R                  
EUGENE         CLOUDY    51  49  92 S5        29.93R                  
$$

ORZ021-028-221100-
SOUTHWEST OREGON

  
CITY           SKY/WX    TMP DP  RH WIND       PRES   REMARKS
NORTH BEND     CLOUDY    54  52  93 N9        29.99R                  
BROOKINGS      CLOUDY    47  47 100 CALM      29.94R                  
ROSEBURG       CLOUDY    52  50  93 CALM      29.94R                  
SEXTON SUMMIT  FOG       41  40  96 CALM      29.90R VSB 1/4          
GRANTS PASS    CLOUDY    48  48 100 CALM      29.95R                  
MEDFORD        CLOUDY    49  45  86 NW3       29.91R                  
$$

ORZ014>016-041-221100-
COLUMBIA GORGE

  
CITY           SKY/WX    TMP DP  RH WIND       PRES   REMARKS
TROUTDALE      CLOUDY    53  51  93 CALM      29.90R                  
HOOD RIVER     MOCLDY    50  48  93 CALM      29.86S                  
THE DALLES     CLOUDY    57  47  69 NW18G25   29.82R                  
$$

ORZ029>031-041-044-049-050-061>064-502-503-505>511-221100-
EASTERN OREGON

  
CITY           SKY/WX    TMP DP  RH WIND       PRES   REMARKS
MADRAS         CLOUDY    46  45  93 CALM      29.86S                  
REDMOND        CLOUDY    48  43  82 N12       29.84R                  
BEND           CLOUDY    45  43  93 NW7       29.85R                  
PRINEVILLE     CLOUDY    46  45  93 NW14      29.84R                  
KLAMATH FALLS  CLOUDY    42  35  76 N10       29.84R                  
LAKEVIEW       LGT RAIN  39  37  92 N9        29.79S                  
HERMISTON      CLOUDY    54  50  86 SE5       29.79R                  
PENDLETON      CLOUDY    51  48  89 S5        29.79S                  
JOHN DAY       CLOUDY    45  43  95 W7        29.79R                  
MEACHAM        CLOUDY    44  40  85 CALM      29.80R                  
LA GRANDE      CLOUDY    48  43  82 NW15      29.78R                  
BAKER CITY     CLOUDY    49  42  77 NW13      29.73S                  
BURNS          CLOUDY    45  36  70 NW9       29.75R                  
ROME             N/A     43  40  89 SW6       29.71R                  
ONTARIO        MOCLDY    54  43  66 NW15      29.67R                  
$$